Tracking 29892 objects as of 21-Nov-2024
HD Live streaming from Space Station
objects crossing your sky now

COSMOS 970 DEB *

Track COSMOS 970 DEB * now!
10-day predictions


NORAD ID: 17732
Int'l Code: 1977-121BP
Perigee: 791.8 km
Apogee: 1,030.7 km
Inclination: 65.8 °
Period: 103.1 minutes
Semi major axis: 7282 km
RCS: 0.0102 m2 (small)
Launch date: December 21, 1977
Source: Commonwealth of Independent States (former USSR) (CIS)
Launch site: TYURATAM MISSILE AND SPACE COMPLEX (TTMTR)

Note: This is SATELLITE DEBRIS
Your satellite tracking list
Your tracking list is empty




NASA's NSSDC Master Catalog

Two Line Element Set (TLE):
1 17732U 77121BP  24325.40209357  .00002233  00000-0  14811-2 0  9991
2 17732  65.8087 324.2773 0163986 151.0311 209.9988 13.97023525  9875
Source of the keplerian elements: AFSPC